Miscellaneous Local Product
Issued by NWS North Platte, NE

Home | Current Version | Previous Version | Graphics & Text | Print | Product List | Glossary On
Versions: 1 2 3 4 5 6 7 8 9 10 11 12 13 14 15 16 17 18 19 20 21 22 23 24 25 26 27 28 29 30 31 32 33 34 35 36 37 38 39 40 41 42 43 44 45 46 47 48 49 50
100
AXUS43 KLBF 231610
MISLBF


WESTERN AND NORTH CENTRAL NEBRASKA HOURLY WEATHER ROUNDUP
NATIONAL WEATHER SERVICE NORTH PLATTE NE
1100 AM CDT TUE MAY 23 2017

NOTE: "FAIR" INDICATES FEW OR NO CLOUDS BELOW 12,000 FEET WITH NO
SIGNIFICANT WEATHER AND/OR OBSTRUCTIONS TO VISIBILITY.

NOTE: STATIONS NOT REPORTING VARIABLES SUCH AS SKY/WEATHER OR
PRESSURE ARE PROVIDED BY RAWS AND APRS NETWORKS AND ARE NOT UNDER
NATIONAL WEATHER SERVICE QUALITY CONTROL.

...OBSERVATIONS IN AND NEAR THE EASTERN PANHANDLE OF NEBRASKA...

CITY           SKY/WX    TMP DP  RH WIND       PRES   REMARKS
PINE RIDGE     MOSUNNY   55  39  54 N15G23    30.13F
GORDON         FAIR      53  37  53 N18       30.11S
CHADRON        SUNNY     55  39  54 N13       30.15F
ALLIANCE       CLOUDY    50  38  63 N20       30.14S
SIDNEY         CLOUDY    52  39  61 N17G24    30.15F
CRESCENT LAKE    N/A     49  38  67 N15G22      N/A
$$

...OBSERVATIONS IN NORTHERN NEBRASKA AND FAR SOUTHERN SOUTH DAKOTA...

CITY           SKY/WX    TMP DP  RH WIND       PRES   REMARKS
WINNER         CLOUDY    51  41  68 NW23G30   30.02S
VALENTINE      CLOUDY    55  36  48 N20G31    30.04F
THEDFORD       CLOUDY    54  38  54 NW26G33   30.05F
AINSWORTH      CLOUDY    48  40  74 N17G23    30.03S
O`NEILL        LGT RAIN  47  43  85 NW17      29.98F
ORD            CLOUDY    53  39  59 N22G30    29.97S
BROKEN BOW     CLOUDY    54  38  54 N24       30.01R
HALSEY           N/A     53  38  57 NW13G30     N/A
BUTTE            N/A     49  42  77 N18G28      N/A
CHAMBERS         N/A     50  42  72 MISG        N/A
EWING            N/A     50  44  80 NW13G20     N/A
$$

...OBSERVATIONS IN SOUTHWEST NEBRASKA AND FAR NORTHEAST COLORADO...

CITY           SKY/WX    TMP DP  RH WIND       PRES   REMARKS
WRAY           FAIR      61  36  39 N22G28    30.13S
IMPERIAL       PTSUNNY   56  38  50 N20G29    30.10S
OGALLALA       CLOUDY    56  39  51 N18G26    30.11S
NORTH PLATTE   MOSUNNY   58  41  53 N17G28    30.05F
MCCOOK         CLOUDY    59  41  51 NW23G31   30.05S
LEXINGTON      CLOUDY    58  46  64 NW23G29   30.02S
STAPLETON        N/A     55  39  54 W5G14       N/A
GOTHENBURG       N/A     53  41  64 NW14        N/A
CALLAWAY         N/A     52  43  72 N20         N/A
$$

...OBSERVATIONS IN CENTRAL LINCOLN COUNTY AREA...

CITY           SKY/WX    TMP DP  RH WIND       PRES   REMARKS
N.P. AIRPORT   MOSUNNY   58  41  53 N17G28    30.05F
N.P. DOWNTOWN    N/A     56  40  55 NW14G24     N/A
N.P. SOUTHEAST   N/A     57  39  52 N12G23      N/A
N.P. HILLCREST   N/A     56  38  50 N26G36      N/A
$$

...SOME OBSERVATIONS FROM AROUND THE REGION...

CITY           SKY/WX    TMP DP  RH WIND       PRES   REMARKS
DENVER         MOSUNNY   54  33  45 N20G26    30.21F
LIMON          CLOUDY    51  37  58 N25       30.19F
ASPEN          MOSUNNY   45  30  55 VRB6      30.31F
LARAMIE        CLOUDY    43  29  57 NW17G25   30.24F
CASPER         MOSUNNY   53  41  63 W8        30.23F
CHEYENNE       CLOUDY    47  32  56 N22G31    30.21F
SCOTTSBLUFF    CLOUDY    57  36  45 NW22G28   30.15F
GRAND ISLAND   CLOUDY    58  45  62 NW21G29   29.96S
OMAHA          CLOUDY    56  45  66 NW10      29.90S
SIOUX FALLS    LGT RAIN  53  49  86 N13       29.90S
PIERRE         LGT RAIN  52  38  58 N22G35    30.04R
RAPID CITY     SUNNY     56  36  47 N15G23    30.14F
BISMARCK       SUNNY     59  37  44 NE25G37   30.09R
KANSAS CITY    PTSUNNY   63  49  60 N14G20    29.88F
HILL CITY      MOSUNNY   62  45  53 NW16G25   30.04F
WICHITA        MOSUNNY   63  49  60 N17G23    29.96F
DODGE CITY     SUNNY     60  42  51 N21G28    30.06F
OKLAHOMA CITY  PTSUNNY   59  51  75 N21G26    29.96S
DALLAS         CLOUDY    69  65  86 NW9       29.90F
AMARILLO       PTSUNNY   52  40  63 N21G29    30.14S
$$




USA.gov is the U.S. government's official web portal to all federal, state and local government web resources and services.